| time (UTC) | temp F | wind direction | speed knots | gust knots | rain 1hr in | rain 24hr in | rain mn in | humidity % | barometer mb |
| 20260906225745 | 100 | 112 | 7.8 | 9.6 | 0.00 | 0.00 | 0.00 | 40 | 1008.9 |
| 20260906225241 | 100 | 114 | 4.3 | 8.7 | 0.00 | 0.00 | 0.00 | 41 | 1008.7 |
| 20260906224737 | 100 | 89 | 3.5 | 11.3 | 0.00 | 0.00 | 0.00 | 41 | 1008.9 |
| 20260906224233 | 100 | 123 | 2.6 | 6.1 | 0.00 | 0.00 | 0.00 | 40 | 1008.9 |
| 20260906223730 | 100 | 165 | 1.7 | 7.0 | 0.00 | 0.00 | 0.00 | 40 | 1008.8 |
| 20260906223225 | 101 | 154 | 1.7 | 6.1 | 0.00 | 0.00 | 0.00 | 40 | 1008.9 |
| 20260906222723 | 100 | 60 | 2.6 | 12.2 | 0.00 | 0.00 | 0.00 | 40 | 1008.7 |
| 20260906222222 | 100 | 140 | 3.5 | 8.7 | 0.00 | 0.00 | 0.00 | 40 | 1008.8 |
| 20260906221720 | 100 | 102 | 5.2 | 7.0 | 0.00 | 0.00 | 0.00 | 41 | 1008.8 |
| 20260906221215 | 98 | 133 | 2.6 | 7.8 | 0.00 | 0.00 | 0.00 | 43 | 1009.0 |
| 20260906220710 | 99 | 140 | 3.5 | 7.0 | 0.00 | 0.00 | 0.00 | 42 | 1009.0 |
| 20260906220205 | 100 | 105 | 1.7 | 12.2 | 0.00 | 0.00 | 0.00 | 41 | 1009.0 |
| 20260906215704 | 99 | 127 | 4.3 | 9.6 | 0.00 | 0.00 | 0.00 | 41 | 1009.1 |
| 20260906215203 | 100 | 188 | 2.6 | 4.3 | 0.00 | 0.00 | 0.00 | 39 | 1009.1 |
| 20260906214701 | 101 | 93 | 7.0 | 9.6 | 0.00 | 0.00 | 0.00 | 38 | 1009.2 |
| 20260906214156 | 100 | 44 | 7.8 | 10.4 | 0.00 | 0.00 | 0.00 | 39 | 1009.0 |
| 20260906213656 | 101 | 112 | 3.5 | 7.8 | 0.00 | 0.00 | 0.00 | 39 | 1009.1 |
| 20260906213150 | 99 | 71 | 2.6 | 5.2 | 0.00 | 0.00 | 0.00 | 41 | 1009.2 |
| 20260906212648 | 101 | 113 | 7.0 | 13.0 | 0.00 | 0.00 | 0.00 | 40 | 1009.3 |
| 20260906212143 | 101 | 23 | 4.3 | 8.7 | 0.00 | 0.00 | 0.00 | 39 | 1009.3 |
| 20260906211642 | 100 | 48 | 4.3 | 7.8 | 0.00 | 0.00 | 0.00 | 39 | 1009.3 |
| 20260906211137 | 100 | 124 | 2.6 | 13.0 | 0.00 | 0.00 | 0.00 | 41 | 1009.3 |
| 20260906210633 | 101 | 51 | 5.2 | 8.7 | 0.00 | 0.00 | 0.00 | 40 | 1009.5 |
| 20260906210128 | 100 | 86 | 7.0 | 7.0 | 0.00 | 0.00 | 0.00 | 41 | 1009.6 |
| 20260906205624 | 99 | 14 | 2.6 | 10.4 | 0.00 | 0.00 | 0.00 | 41 | 1009.5 |
| 20260906205120 | 100 | 211 | 1.7 | 4.3 | 0.00 | 0.00 | 0.00 | 40 | 1009.6 |
| 20260906204619 | 100 | 122 | 1.7 | 7.8 | 0.00 | 0.00 | 0.00 | 41 | 1009.6 |
| 20260906204114 | 101 | 107 | 4.3 | 8.7 | 0.00 | 0.00 | 0.00 | 40 | 1009.6 |
| 20260906203613 | 100 | 79 | 3.5 | 13.0 | 0.00 | 0.00 | 0.00 | 42 | 1009.8 |
| 20260906203103 | 100 | 111 | 7.8 | 11.3 | 0.00 | 0.00 | 0.00 | 41 | 1009.6 |
| 20260906202559 | 100 | 184 | 3.5 | 7.8 | 0.00 | 0.00 | 0.00 | 41 | 1009.7 |
| 20260906202100 | 100 | 87 | 5.2 | 11.3 | 0.00 | 0.00 | 0.00 | 41 | 1009.7 |
| 20260906201559 | 100 | 272 | 0.9 | 5.2 | 0.00 | 0.00 | 0.00 | 41 | 1009.9 |
| 20260906201053 | 100 | 160 | 4.3 | 7.0 | 0.00 | 0.00 | 0.00 | 41 | 1010.1 |
| 20260906200549 | 99 | 111 | 6.1 | 11.3 | 0.00 | 0.00 | 0.00 | 42 | 1010.0 |
| 20260906200045 | 100 | 128 | 5.2 | 7.8 | 0.00 | 0.00 | 0.00 | 41 | 1010.2 |
| 20260906195541 | 98 | 197 | 3.5 | 8.7 | 0.00 | 0.00 | 0.00 | 43 | 1010.4 |
| 20260906195037 | 99 | 154 | 5.2 | 8.7 | 0.00 | 0.00 | 0.00 | 43 | 1010.4 |
| 20260906194533 | 99 | 170 | 5.2 | 7.0 | 0.00 | 0.00 | 0.00 | 42 | 1010.4 |
| 20260906194028 | 99 | 91 | 2.6 | 7.8 | 0.00 | 0.00 | 0.00 | 43 | 1010.3 |
| 20260906193528 | 98 | 78 | 3.5 | 6.1 | 0.00 | 0.00 | 0.00 | 44 | 1010.4 |
| 20260906193023 | 99 | 148 | 4.3 | 11.3 | 0.00 | 0.00 | 0.00 | 44 | 1010.3 |
| 20260906192519 | 99 | 139 | 2.6 | 8.7 | 0.00 | 0.00 | 0.00 | 42 | 1010.4 |
| 20260906192017 | 100 | 123 | 2.6 | 6.1 | 0.00 | 0.00 | 0.00 | 43 | 1010.6 |
| 20260906191513 | 99 | 145 | 4.3 | 7.8 | 0.00 | 0.00 | 0.00 | 44 | 1010.6 |
| 20260906191012 | 99 | 151 | 4.3 | 7.0 | 0.00 | 0.00 | 0.00 | 43 | 1010.7 |
| 20260906190511 | 98 | 155 | 1.7 | 9.6 | 0.00 | 0.00 | 0.00 | 43 | 1010.6 |
| 20260906190007 | 97 | 148 | 0.9 | 9.6 | 0.00 | 0.00 | 0.00 | 45 | 1010.6 |
| 20260906185505 | 98 | 178 | 2.6 | 9.6 | 0.00 | 0.00 | 0.00 | 44 | 1010.7 |
| 20260906185004 | 98 | 145 | 3.5 | 9.6 | 0.00 | 0.00 | 0.00 | 45 | 1010.8 |
| 20260906184459 | 98 | 64 | 3.5 | 10.4 | 0.00 | 0.00 | 0.00 | 45 | 1010.8 |
| 20260906183954 | 98 | 164 | 5.2 | 8.7 | 0.00 | 0.00 | 0.00 | 44 | 1010.9 |
| 20260906183450 | 97 | 92 | 0.0 | 5.2 | 0.00 | 0.00 | 0.00 | 47 | 1011.0 |
| 20260906182946 | 98 | 164 | 6.1 | 10.4 | 0.00 | 0.00 | 0.00 | 45 | 1011.0 |
| 20260906182436 | 98 | 112 | 2.6 | 7.0 | 0.00 | 0.00 | 0.00 | 46 | 1011.1 |
| 20260906181932 | 98 | 39 | 7.8 | 8.7 | 0.00 | 0.00 | 0.00 | 46 | 1011.2 |
| 20260906181427 | 98 | 73 | 2.6 | 5.2 | 0.00 | 0.00 | 0.00 | 47 | 1011.4 |
| 20260906180923 | 97 | 128 | 2.6 | 7.0 | 0.00 | 0.00 | 0.00 | 47 | 1011.3 |
| 20260906180418 | 98 | 191 | 9.6 | 9.6 | 0.00 | 0.00 | 0.00 | 46 | 1011.4 |
| 20260906175915 | 98 | 167 | 2.6 | 11.3 | 0.00 | 0.00 | 0.00 | 47 | 1011.4 |
| 20260906175410 | 96 | 286 | 0.0 | 7.8 | 0.00 | 0.00 | 0.00 | 46 | 1011.7 |
| 20260906174909 | 97 | 145 | 6.1 | 8.7 | 0.00 | 0.00 | 0.00 | 46 | 1011.9 |
| 20260906174409 | 97 | 145 | 6.1 | 8.7 | 0.00 | 0.00 | 0.00 | 46 | 1011.9 |
| 20260906173903 | 96 | 197 | 0.9 | 4.3 | 0.00 | 0.00 | 0.00 | 50 | 1011.9 |
| 20260906173359 | 94 | 19 | 0.0 | 4.3 | 0.00 | 0.00 | 0.00 | 52 | 1012.1 |
| 20260906172858 | 94 | 342 | 1.7 | 2.6 | 0.00 | 0.00 | 0.00 | 53 | 1012.1 |
| 20260906172355 | 94 | 110 | 3.5 | 7.0 | 0.00 | 0.00 | 0.00 | 52 | 1012.1 |
| 20260906171849 | 95 | 151 | 2.6 | 8.7 | 0.00 | 0.00 | 0.00 | 52 | 1012.3 |
| 20260906171344 | 97 | 101 | 1.7 | 4.3 | 0.00 | 0.00 | 0.00 | 50 | 1012.2 |
| 20260906170840 | 95 | 124 | 0.0 | 3.5 | 0.00 | 0.00 | 0.00 | 52 | 1012.6 |
| 20260906170336 | 94 | 106 | 6.1 | 6.1 | 0.00 | 0.00 | 0.00 | 53 | 1012.6 |
| 20260906165832 | 93 | 31 | 0.0 | 8.7 | 0.00 | 0.00 | 0.00 | 55 | 1012.7 |
| 20260906165330 | 94 | 151 | 4.3 | 7.8 | 0.00 | 0.00 | 0.00 | 54 | 1012.6 |
| 20260906164826 | 95 | 272 | 1.7 | 3.5 | 0.00 | 0.00 | 0.00 | 53 | 1012.5 |
| 20260906164325 | 94 | 151 | 6.1 | 8.7 | 0.00 | 0.00 | 0.00 | 54 | 1012.8 |
| 20260906163821 | 93 | 106 | 2.6 | 7.8 | 0.00 | 0.00 | 0.00 | 56 | 1012.6 |
| 20260906163317 | 94 | 122 | 4.3 | 6.1 | 0.00 | 0.00 | 0.00 | 55 | 1012.7 |
| 20260906162815 | 94 | 17 | 2.6 | 5.2 | 0.00 | 0.00 | 0.00 | 56 | 1012.6 |
| 20260906162314 | 94 | 103 | 5.2 | 7.8 | 0.00 | 0.00 | 0.00 | 56 | 1012.6 |
| 20260906161809 | 93 | 165 | 3.5 | 7.0 | 0.00 | 0.00 | 0.00 | 59 | 1012.4 |
| 20260906161309 | 92 | 101 | 2.6 | 7.8 | 0.00 | 0.00 | 0.00 | 59 | 1012.8 |
| 20260906160807 | 93 | 104 | 2.6 | 5.2 | 0.00 | 0.00 | 0.00 | 60 | 1012.6 |
| 20260906160302 | 92 | 68 | 2.6 | 7.8 | 0.00 | 0.00 | 0.00 | 61 | 1012.7 |
| 20260906155759 | 92 | 59 | 2.6 | 6.1 | 0.00 | 0.00 | 0.00 | 61 | 1012.5 |
| 20260906155254 | 92 | 47 | 2.6 | 6.1 | 0.00 | 0.00 | 0.00 | 62 | 1012.6 |
| 20260906154750 | 91 | 354 | 2.6 | 6.1 | 0.00 | 0.00 | 0.00 | 64 | 1012.7 |
| 20260906154245 | 91 | 354 | 2.6 | 6.1 | 0.00 | 0.00 | 0.00 | 64 | 1012.7 |
| 20260906153743 | 92 | 287 | 0.9 | 3.5 | 0.00 | 0.00 | 0.00 | 64 | 1012.6 |
| 20260906153237 | 91 | 160 | 2.6 | 6.1 | 0.00 | 0.00 | 0.00 | 64 | 1012.6 |
| 20260906152733 | 91 | 77 | 1.7 | 3.5 | 0.00 | 0.00 | 0.00 | 64 | 1012.6 |
| 20260906152227 | 90 | 95 | 1.7 | 3.5 | 0.00 | 0.00 | 0.00 | 65 | 1012.5 |
| 20260906151727 | 90 | 320 | 2.6 | 6.1 | 0.00 | 0.00 | 0.00 | 67 | 1012.4 |
| 20260906151223 | 90 | 123 | 1.7 | 4.3 | 0.00 | 0.00 | 0.00 | 66 | 1012.6 |
| 20260906150718 | 89 | 173 | 2.6 | 5.2 | 0.00 | 0.00 | 0.00 | 68 | 1012.7 |
| 20260906150213 | 90 | 167 | 1.7 | 3.5 | 0.00 | 0.00 | 0.00 | 67 | 1012.5 |
| 20260906145712 | 89 | 93 | 1.7 | 2.6 | 0.00 | 0.00 | 0.00 | 68 | 1012.3 |
| 20260906145212 | 90 | 260 | 1.7 | 3.5 | 0.00 | 0.00 | 0.00 | 67 | 1012.3 |
| 20260906144706 | 89 | 83 | 0.9 | 3.5 | 0.00 | 0.00 | 0.00 | 69 | 1012.4 |
| 20260906144202 | 88 | 89 | 0.0 | 1.7 | 0.00 | 0.00 | 0.00 | 70 | 1012.4 |
| 20260906143701 | 88 | 255 | 0.0 | 2.6 | 0.00 | 0.00 | 0.00 | 71 | 1012.5 |
| 20260906143158 | 89 | 155 | 0.9 | 2.6 | 0.00 | 0.00 | 0.00 | 70 | 1012.5 |
| 20260906142658 | 87 | 328 | 0.0 | 3.5 | 0.00 | 0.00 | 0.00 | 73 | 1012.5 |
| 20260906142153 | 86 | 106 | 0.0 | 4.3 | 0.00 | 0.00 | 0.00 | 73 | 1012.3 |
| 20260906141652 | 87 | 224 | 0.9 | 2.6 | 0.00 | 0.00 | 0.00 | 74 | 1012.5 |
| 20260906141147 | 86 | 75 | 0.9 | 1.7 | 0.00 | 0.00 | 0.00 | 74 | 1012.5 |
| 20260906140646 | 86 | 180 | 0.9 | 1.7 | 0.00 | 0.00 | 0.00 | 75 | 1012.3 |
| 20260906140141 | 85 | 65 | 0.0 | 2.6 | 0.00 | 0.00 | 0.00 | 76 | 1012.4 |
| 20260906135638 | 84 | 302 | 0.0 | 3.5 | 0.00 | 0.00 | 0.00 | 78 | 1012.4 |
| 20260906135134 | 83 | 184 | 1.7 | 4.3 | 0.00 | 0.00 | 0.00 | 80 | 1012.1 |
| 20260906134630 | 83 | 114 | 0.9 | 4.3 | 0.00 | 0.00 | 0.00 | 80 | 1012.4 |
| 20260906134124 | 83 | 76 | 1.7 | 4.3 | 0.00 | 0.00 | 0.00 | 80 | 1012.2 |
| 20260906133620 | 83 | 104 | 1.7 | 3.5 | 0.00 | 0.00 | 0.00 | 80 | 1012.1 |
| 20260906133115 | 83 | 123 | 0.0 | 2.6 | 0.00 | 0.00 | 0.00 | 81 | 1012.3 |
| 20260906132610 | 82 | 95 | 0.0 | 3.5 | 0.00 | 0.00 | 0.00 | 82 | 1012.2 |
| 20260906132106 | 81 | 124 | 0.9 | 6.1 | 0.00 | 0.00 | 0.00 | 84 | 1012.1 |
| 20260906131601 | 80 | 104 | 2.6 | 5.2 | 0.00 | 0.00 | 0.00 | 84 | 1012.0 |
| 20260906131056 | 80 | 26 | 0.9 | 3.5 | 0.00 | 0.00 | 0.00 | 84 | 1011.9 |
| 20260906130555 | 80 | 79 | 1.7 | 3.5 | 0.00 | 0.00 | 0.00 | 84 | 1012.0 |
| 20260906130051 | 80 | 70 | 0.9 | 1.7 | 0.00 | 0.00 | 0.00 | 84 | 1011.9 |
| 20260906125548 | 80 | 128 | 0.9 | 2.6 | 0.00 | 0.00 | 0.00 | 85 | 1011.9 |
| 20260906125042 | 79 | 66 | 1.7 | 2.6 | 0.00 | 0.00 | 0.00 | 86 | 1012.0 |
| 20260906124538 | 79 | 91 | 1.7 | 2.6 | 0.00 | 0.00 | 0.00 | 87 | 1011.8 |
| 20260906124032 | 78 | 60 | 0.0 | 2.6 | 0.00 | 0.00 | 0.00 | 88 | 1011.9 |
| 20260906123532 | 78 | 77 | 0.9 | 2.6 | 0.00 | 0.00 | 0.00 | 88 | 1011.7 |
| 20260906123027 | 77 | 95 | 0.9 | 3.5 | 0.00 | 0.00 | 0.00 | 89 | 1011.8 |
| 20260906122521 | 77 | 103 | 1.7 | 3.5 | 0.00 | 0.00 | 0.00 | 89 | 1012.0 |
| 20260906122017 | 77 | 16 | 0.0 | 1.7 | 0.00 | 0.00 | 0.00 | 90 | 1011.7 |
| 20260906121513 | 77 | 23 | 0.0 | 1.7 | 0.00 | 0.00 | 0.00 | 90 | 1011.5 |
| 20260906121009 | 77 | 74 | 0.0 | 1.7 | 0.00 | 0.00 | 0.00 | 90 | 1011.5 |
| 20260906120504 | 77 | 44 | 0.0 | 1.7 | 0.00 | 0.00 | 0.00 | 90 | 1011.3 |
| 20260906120002 | 77 | 34 | 0.0 | 1.7 | 0.00 | 0.00 | 0.00 | 90 | 1011.4 |
| 20260906115455 | 77 | 82 | 0.0 | 1.7 | 0.00 | 0.00 | 0.00 | 90 | 1011.5 |
| 20260906114950 | 77 | 124 | 0.9 | 1.7 | 0.00 | 0.00 | 0.00 | 90 | 1011.3 |
| 20260906114445 | 77 | 55 | 0.0 | 1.7 | 0.00 | 0.00 | 0.00 | 89 | 1011.3 |
| 20260906113941 | 77 | 74 | 0.0 | 1.7 | 0.00 | 0.00 | 0.00 | 89 | 1011.3 |
| 20260906113439 | 77 | 109 | 0.9 | 1.7 | 0.00 | 0.00 | 0.00 | 89 | 1011.3 |
| 20260906112935 | 77 | 137 | 0.0 | 0.9 | 0.00 | 0.00 | 0.00 | 89 | 1011.3 |
| 20260906112430 | 77 | 142 | 0.0 | 0.9 | 0.00 | 0.00 | 0.00 | 89 | 1011.3 |
| 20260906111926 | 77 | 57 | 0.0 | 1.7 | 0.00 | 0.00 | 0.00 | 89 | 1011.1 |
| 20260906111425 | 77 | 50 | 0.0 | 1.7 | 0.00 | 0.00 | 0.00 | 88 | 1011.1 |
| 20260906110920 | 77 | 68 | 0.0 | 0.9 | 0.00 | 0.00 | 0.00 | 88 | 1011.2 |
| 20260906110416 | 77 | 75 | 0.0 | 2.6 | 0.00 | 0.00 | 0.00 | 88 | 1011.1 |
| 20260906105915 | 78 | 93 | 1.7 | 1.7 | 0.00 | 0.00 | 0.00 | 87 | 1011.1 |
| 20260906105411 | 78 | 62 | 0.0 | 1.7 | 0.00 | 0.00 | 0.00 | 87 | 1011.1 |
| 20260906104907 | 78 | 50 | 0.0 | 1.7 | 0.00 | 0.00 | 0.00 | 87 | 1010.8 |
| 20260906104405 | 78 | 55 | 0.0 | 1.7 | 0.00 | 0.00 | 0.00 | 87 | 1010.9 |
| 20260906103904 | 78 | 75 | 0.9 | 1.7 | 0.00 | 0.00 | 0.00 | 87 | 1010.9 |
| 20260906103402 | 78 | 57 | 1.7 | 1.7 | 0.00 | 0.00 | 0.00 | 87 | 1011.0 |
| 20260906102858 | 78 | 309 | 0.0 | 0.0 | 0.00 | 0.00 | 0.00 | 87 | 1010.6 |
| 20260906102357 | 78 | 62 | 0.0 | 0.0 | 0.00 | 0.00 | 0.00 | 87 | 1010.9 |
| 20260906101852 | 78 | 75 | 0.0 | 0.9 | 0.00 | 0.00 | 0.00 | 86 | 1010.9 |
| 20260906101347 | 78 | 62 | 0.0 | 1.7 | 0.00 | 0.00 | 0.00 | 86 | 1010.6 |
| 20260906100843 | 78 | 230 | 0.0 | 0.0 | 0.00 | 0.00 | 0.00 | 85 | 1010.5 |
| 20260906100342 | 78 | 284 | 0.0 | 0.9 | 0.00 | 0.00 | 0.00 | 85 | 1010.4 |
| 20260906095837 | 79 | 223 | 1.7 | 1.7 | 0.00 | 0.00 | 0.00 | 85 | 1010.3 |
| 20260906095333 | 78 | 236 | 0.9 | 2.6 | 0.00 | 0.00 | 0.00 | 85 | 1010.1 |
| 20260906094832 | 78 | 245 | 0.9 | 1.7 | 0.00 | 0.00 | 0.00 | 85 | 1010.5 |
| 20260906094326 | 78 | 217 | 0.0 | 1.7 | 0.00 | 0.00 | 0.00 | 86 | 1010.3 |
| 20260906093823 | 78 | 297 | 0.0 | 1.7 | 0.00 | 0.00 | 0.00 | 86 | 1010.4 |
| 20260906093313 | 78 | 305 | 0.0 | 0.9 | 0.00 | 0.00 | 0.00 | 86 | 1010.2 |
| 20260906092808 | 79 | 189 | 0.0 | 1.7 | 0.00 | 0.00 | 0.00 | 85 | 1010.2 |
| 20260906092305 | 79 | 157 | 0.0 | 1.7 | 0.00 | 0.00 | 0.00 | 85 | 1010.0 |
| 20260906091758 | 79 | 217 | 0.9 | 1.7 | 0.00 | 0.00 | 0.00 | 84 | 1010.2 |
| 20260906091254 | 79 | 192 | 0.9 | 1.7 | 0.00 | 0.00 | 0.00 | 84 | 1010.4 |
| 20260906090750 | 79 | 186 | 0.0 | 1.7 | 0.00 | 0.00 | 0.00 | 84 | 1010.1 |
| 20260906090248 | 79 | 193 | 0.9 | 1.7 | 0.00 | 0.00 | 0.00 | 84 | 1010.2 |
| 20260906085748 | 79 | 214 | 0.0 | 1.7 | 0.00 | 0.00 | 0.00 | 84 | 1010.2 |
| 20260906085242 | 79 | 179 | 0.9 | 1.7 | 0.00 | 0.00 | 0.00 | 84 | 1010.3 |
| 20260906084737 | 79 | 229 | 0.0 | 0.9 | 0.00 | 0.00 | 0.00 | 84 | 1010.2 |
| 20260906084236 | 79 | 299 | 0.0 | 0.9 | 0.00 | 0.00 | 0.00 | 84 | 1010.3 |
| 20260906083732 | 79 | 297 | 0.0 | 1.7 | 0.00 | 0.00 | 0.00 | 83 | 1010.5 |
| 20260906083227 | 80 | 230 | 0.0 | 0.9 | 0.00 | 0.00 | 0.00 | 83 | 1010.3 |
| 20260906082721 | 80 | 199 | 0.0 | 0.9 | 0.00 | 0.00 | 0.00 | 82 | 1010.4 |
| 20260906082211 | 80 | 205 | 0.0 | 1.7 | 0.00 | 0.00 | 0.00 | 82 | 1010.4 |
| 20260906081707 | 80 | 239 | 0.9 | 1.7 | 0.00 | 0.00 | 0.00 | 82 | 1010.3 |
| 20260906081202 | 80 | 205 | 0.9 | 1.7 | 0.00 | 0.00 | 0.00 | 82 | 1010.2 |
| 20260906080659 | 80 | 250 | 0.0 | 2.6 | 0.00 | 0.00 | 0.00 | 82 | 1010.4 |
| 20260906080154 | 80 | 196 | 1.7 | 3.5 | 0.00 | 0.00 | 0.00 | 81 | 1010.2 |
| 20260906075654 | 81 | 282 | 0.0 | 4.3 | 0.00 | 0.00 | 0.00 | 81 | 1010.2 |
| 20260906075149 | 81 | 224 | 0.0 | 1.7 | 0.00 | 0.00 | 0.00 | 81 | 1010.5 |
| 20260906074644 | 81 | 197 | 0.0 | 2.6 | 0.00 | 0.00 | 0.00 | 81 | 1010.4 |
| 20260906074143 | 81 | 202 | 0.0 | 2.6 | 0.00 | 0.00 | 0.00 | 80 | 1010.3 |
| 20260906073638 | 81 | 201 | 0.0 | 2.6 | 0.00 | 0.00 | 0.00 | 80 | 1010.4 |
| 20260906073134 | 81 | 186 | 0.9 | 2.6 | 0.00 | 0.00 | 0.00 | 80 | 1010.4 |
| 20260906072629 | 82 | 293 | 0.0 | 1.7 | 0.00 | 0.00 | 0.00 | 79 | 1010.6 |
| 20260906072125 | 82 | 186 | 1.7 | 2.6 | 0.00 | 0.00 | 0.00 | 79 | 1010.8 |
| 20260906071621 | 82 | 117 | 0.0 | 5.2 | 0.00 | 0.00 | 0.00 | 79 | 1010.8 |
| 20260906071120 | 82 | 157 | 0.0 | 2.6 | 0.00 | 0.00 | 0.00 | 79 | 1010.6 |
| 20260906070612 | 82 | 184 | 0.9 | 4.3 | 0.00 | 0.00 | 0.00 | 78 | 1010.8 |
| 20260906070107 | 82 | 176 | 3.5 | 4.3 | 0.00 | 0.00 | 0.00 | 78 | 1010.6 |
| 20260906065607 | 82 | 189 | 1.7 | 5.2 | 0.00 | 0.00 | 0.00 | 78 | 1010.8 |
| 20260906065102 | 82 | 155 | 2.6 | 4.3 | 0.00 | 0.00 | 0.00 | 77 | 1010.8 |
| 20260906064557 | 83 | 195 | 1.7 | 3.5 | 0.00 | 0.00 | 0.00 | 77 | 1010.9 |
| 20260906064052 | 83 | 194 | 2.6 | 6.1 | 0.00 | 0.00 | 0.00 | 77 | 1010.9 |
| 20260906063547 | 83 | 185 | 0.0 | 5.2 | 0.00 | 0.00 | 0.00 | 77 | 1011.1 |
| 20260906063043 | 83 | 251 | 0.9 | 4.3 | 0.00 | 0.00 | 0.00 | 76 | 1011.2 |
| 20260906062538 | 83 | 223 | 2.6 | 3.5 | 0.00 | 0.00 | 0.00 | 76 | 1011.1 |
| 20260906062032 | 84 | 173 | 2.6 | 5.2 | 0.00 | 0.00 | 0.00 | 76 | 1011.1 |
| 20260906061529 | 84 | 158 | 3.5 | 6.1 | 0.00 | 0.00 | 0.00 | 76 | 1011.2 |
| 20260906061028 | 84 | 183 | 1.7 | 4.3 | 0.00 | 0.00 | 0.00 | 76 | 1011.3 |
| 20260906060525 | 84 | 190 | 1.7 | 4.3 | 0.00 | 0.00 | 0.00 | 76 | 1011.0 |
| 20260906060021 | 84 | 183 | 0.9 | 3.5 | 0.00 | 0.00 | 0.00 | 76 | 1011.1 |
| 20260906055518 | 83 | 198 | 1.7 | 2.6 | 0.00 | 0.00 | 0.00 | 76 | 1011.2 |
| 20260906055013 | 83 | 189 | 1.7 | 2.6 | 0.00 | 0.00 | 0.00 | 76 | 1011.1 |
| 20260906054513 | 84 | 202 | 0.9 | 1.7 | 0.00 | 0.00 | 0.00 | 76 | 1011.0 |
| 20260906054008 | 83 | 213 | 0.0 | 2.6 | 0.00 | 0.00 | 0.00 | 76 | 1010.7 |
| 20260906053504 | 83 | 213 | 0.0 | 2.6 | 0.00 | 0.00 | 0.00 | 76 | 1010.7 |
| 20260906053000 | 83 | 230 | 0.0 | 0.9 | 0.00 | 0.00 | 0.00 | 76 | 1010.9 |
| 20260906052455 | 84 | 248 | 0.9 | 1.7 | 0.00 | 0.00 | 0.00 | 75 | 1010.8 |
| 20260906051952 | 84 | 152 | 0.9 | 2.6 | 0.00 | 0.00 | 0.00 | 75 | 1011.0 |
| 20260906051447 | 84 | 210 | 0.0 | 1.7 | 0.00 | 0.00 | 0.00 | 75 | 1011.1 |
| 20260906050943 | 84 | 296 | 0.0 | 1.7 | 0.00 | 0.00 | 0.00 | 75 | 1010.9 |
| 20260906050443 | 84 | 288 | 0.0 | 1.7 | 0.00 | 0.00 | 0.00 | 74 | 1010.8 |
| 20260906045942 | 84 | 297 | 0.0 | 2.6 | 0.00 | 0.00 | 0.00 | 74 | 1011.0 |
| 20260906045441 | 85 | 196 | 1.7 | 3.5 | 0.00 | 0.00 | 0.00 | 73 | 1011.0 |
| 20260906044937 | 85 | 137 | 0.9 | 2.6 | 0.00 | 0.00 | 0.00 | 73 | 1011.1 |
| 20260906044432 | 85 | 159 | 1.7 | 2.6 | 0.00 | 0.00 | 0.00 | 73 | 1011.1 |
| 20260906043927 | 85 | 143 | 0.9 | 2.6 | 0.00 | 0.00 | 0.00 | 72 | 1011.1 |
| 20260906043423 | 85 | 171 | 1.7 | 2.6 | 0.00 | 0.00 | 0.00 | 72 | 1011.0 |
| 20260906042919 | 85 | 184 | 0.0 | 3.5 | 0.00 | 0.00 | 0.00 | 72 | 1010.7 |
| 20260906042418 | 86 | 212 | 1.7 | 3.5 | 0.00 | 0.00 | 0.00 | 71 | 1010.9 |
| 20260906041913 | 86 | 131 | 0.0 | 4.3 | 0.00 | 0.00 | 0.00 | 71 | 1010.5 |
| 20260906041409 | 86 | 198 | 2.6 | 4.3 | 0.00 | 0.00 | 0.00 | 70 | 1010.7 |
| 20260906040909 | 86 | 144 | 0.0 | 6.1 | 0.00 | 0.00 | 0.00 | 70 | 1010.9 |
| 20260906040404 | 86 | 202 | 0.0 | 6.1 | 0.00 | 0.00 | 0.00 | 69 | 1010.9 |
| 20260906035859 | 86 | 177 | 2.6 | 7.8 | 0.00 | 0.00 | 0.00 | 69 | 1010.9 |
| 20260906035355 | 86 | 174 | 2.6 | 4.3 | 0.00 | 0.00 | 0.00 | 69 | 1010.8 |
| 20260906034850 | 87 | 139 | 1.7 | 5.2 | 0.00 | 0.00 | 0.00 | 68 | 1010.6 |
| 20260906034344 | 87 | 243 | 0.0 | 4.3 | 0.00 | 0.00 | 0.00 | 68 | 1010.8 |
| 20260906033840 | 87 | 214 | 0.0 | 5.2 | 0.00 | 0.00 | 0.00 | 67 | 1010.9 |
| 20260906033339 | 87 | 143 | 2.6 | 6.1 | 0.00 | 0.00 | 0.00 | 67 | 1010.8 |
| 20260906032836 | 87 | 170 | 2.6 | 7.8 | 0.00 | 0.00 | 0.00 | 67 | 1010.8 |
| 20260906032332 | 87 | 157 | 3.5 | 7.0 | 0.00 | 0.00 | 0.00 | 68 | 1011.0 |
| 20260906031827 | 87 | 202 | 2.6 | 4.3 | 0.00 | 0.00 | 0.00 | 68 | 1010.8 |
| 20260906031322 | 87 | 181 | 0.9 | 4.3 | 0.00 | 0.00 | 0.00 | 69 | 1011.0 |
| 20260906030821 | 87 | 175 | 0.9 | 4.3 | 0.00 | 0.00 | 0.00 | 69 | 1010.8 |
| 20260906030317 | 87 | 108 | 0.0 | 3.5 | 0.00 | 0.00 | 0.00 | 68 | 1010.9 |
| 20260906025811 | 88 | 177 | 0.9 | 4.3 | 0.00 | 0.00 | 0.00 | 68 | 1010.9 |
| 20260906025306 | 88 | 136 | 3.5 | 5.2 | 0.00 | 0.00 | 0.00 | 68 | 1010.6 |
| 20260906024805 | 88 | 154 | 3.5 | 7.0 | 0.00 | 0.00 | 0.00 | 67 | 1010.5 |
| 20260906024304 | 88 | 151 | 2.6 | 6.1 | 0.00 | 0.00 | 0.00 | 68 | 1010.4 |
| 20260906023759 | 88 | 142 | 2.6 | 5.2 | 0.00 | 0.00 | 0.00 | 67 | 1010.2 |
| 20260906023254 | 88 | 137 | 4.3 | 5.2 | 0.00 | 0.00 | 0.00 | 67 | 1010.5 |
| 20260906022750 | 88 | 151 | 2.6 | 7.8 | 0.00 | 0.00 | 0.00 | 67 | 1010.2 |
| 20260906022245 | 88 | 119 | 2.6 | 5.2 | 0.00 | 0.00 | 0.00 | 66 | 1010.3 |
| 20260906021741 | 89 | 105 | 0.9 | 6.1 | 0.00 | 0.00 | 0.00 | 66 | 1010.1 |
| 20260906021240 | 89 | 69 | 0.9 | 4.3 | 0.00 | 0.00 | 0.00 | 65 | 1010.0 |
| 20260906020735 | 89 | 148 | 0.9 | 4.3 | 0.00 | 0.00 | 0.00 | 64 | 1009.9 |
| 20260906020235 | 89 | 115 | 2.6 | 4.3 | 0.00 | 0.00 | 0.00 | 63 | 1010.1 |
| 20260906015730 | 89 | 111 | 2.6 | 9.6 | 0.00 | 0.00 | 0.00 | 63 | 1009.7 |
| 20260906015228 | 90 | 168 | 1.7 | 7.0 | 0.00 | 0.00 | 0.00 | 62 | 1009.9 |
| 20260906014723 | 90 | 153 | 4.3 | 9.6 | 0.00 | 0.00 | 0.00 | 61 | 1009.6 |
| 20260906014219 | 90 | 101 | 1.7 | 7.0 | 0.00 | 0.00 | 0.00 | 61 | 1009.6 |
| 20260906013715 | 90 | 333 | 0.0 | 6.1 | 0.00 | 0.00 | 0.00 | 61 | 1009.6 |
| 20260906013214 | 90 | 145 | 1.7 | 6.1 | 0.00 | 0.00 | 0.00 | 61 | 1009.8 |
| 20260906012709 | 90 | 146 | 2.6 | 10.4 | 0.00 | 0.00 | 0.00 | 60 | 1009.5 |
| 20260906012204 | 91 | 120 | 2.6 | 7.8 | 0.00 | 0.00 | 0.00 | 59 | 1009.4 |
| 20260906011700 | 91 | 105 | 5.2 | 9.6 | 0.00 | 0.00 | 0.00 | 58 | 1009.2 |
| 20260906011154 | 92 | 101 | 3.5 | 9.6 | 0.00 | 0.00 | 0.00 | 56 | 1009.3 |
| 20260906010649 | 93 | 137 | 3.5 | 4.3 | 0.00 | 0.00 | 0.00 | 50 | 1009.1 |
| 20260906010145 | 94 | 159 | 2.6 | 5.2 | 0.00 | 0.00 | 0.00 | 50 | 1009.3 |
| 20260906005645 | 94 | 183 | 0.0 | 3.5 | 0.00 | 0.00 | 0.00 | 49 | 1009.1 |
| 20260906005144 | 94 | 271 | 0.0 | 4.3 | 0.00 | 0.00 | 0.00 | 49 | 1009.1 |
| 20260906004638 | 94 | 191 | 0.0 | 4.3 | 0.00 | 0.00 | 0.00 | 49 | 1009.1 |
| 20260906004133 | 95 | 23 | 0.0 | 4.3 | 0.00 | 0.00 | 0.00 | 48 | 1009.0 |
| 20260906003628 | 95 | 141 | 1.7 | 5.2 | 0.00 | 0.00 | 0.00 | 47 | 1009.0 |
| 20260906003124 | 95 | 180 | 2.6 | 5.2 | 0.00 | 0.00 | 0.00 | 47 | 1008.9 |
| 20260906002619 | 95 | 139 | 0.0 | 4.3 | 0.00 | 0.00 | 0.00 | 47 | 1009.0 |
| 20260906002114 | 96 | 116 | 4.3 | 5.2 | 0.00 | 0.00 | 0.00 | 46 | 1009.1 |
| 20260906001608 | 96 | 168 | 1.7 | 4.3 | 0.00 | 0.00 | 0.00 | 46 | 1009.1 |
| 20260906001103 | 96 | 149 | 3.5 | 7.8 | 0.00 | 0.00 | 0.00 | 46 | 1008.9 |
| 20260906000559 | 96 | 87 | 5.2 | 8.7 | 0.00 | 0.00 | 0.00 | 46 | 1008.9 |
| 20260906000054 | 97 | 187 | 1.7 | 10.4 | 0.00 | 0.00 | 0.00 | 45 | 1008.7 |
| 20260905235553 | 97 | 148 | 3.5 | 12.2 | 0.00 | 0.00 | 0.00 | 45 | 1008.6 |
| 20260905235049 | 98 | 119 | 7.0 | 12.2 | 0.00 | 0.00 | 0.00 | 44 | 1008.8 |
| 20260905234544 | 98 | 143 | 6.1 | 10.4 | 0.00 | 0.00 | 0.00 | 44 | 1008.8 |
| 20260905234039 | 99 | 193 | 1.7 | 9.6 | 0.00 | 0.00 | 0.00 | 42 | 1008.5 |
| 20260905233539 | 100 | 89 | 6.1 | 7.8 | 0.00 | 0.00 | 0.00 | 39 | 1008.5 |
| 20260905233039 | 100 | 154 | 1.7 | 7.0 | 0.00 | 0.00 | 0.00 | 39 | 1008.6 |
| 20260905232534 | 100 | 155 | 4.3 | 6.1 | 0.00 | 0.00 | 0.00 | 39 | 1008.7 |
| 20260905232030 | 100 | 168 | 1.7 | 2.6 | 0.00 | 0.00 | 0.00 | 39 | 1008.5 |
| 20260905231525 | 99 | 182 | 1.7 | 4.3 | 0.00 | 0.00 | 0.00 | 39 | 1008.6 |
| 20260905231021 | 100 | 134 | 2.6 | 6.1 | 0.00 | 0.00 | 0.00 | 39 | 1008.5 |
| 20260905230520 | 100 | 192 | 0.9 | 6.1 | 0.00 | 0.00 | 0.00 | 39 | 1008.7 |
| 20260905230019 | 100 | 147 | 2.6 | 6.1 | 0.00 | 0.00 | 0.00 | 39 | 1008.6 |